Regional Weather Roundup
Issued by NWS

Home | Current Version | Previous Version | Text Only | Print | Product List | Glossary On
Versions: 1 2 3 4 5 6 7 8 9 10 11 12 13 14 15 16 17 18 19 20 21 22 23 24 25 26 27
000
ASUS45 KBOI 281710
RWRID

IDAHO REGIONAL WEATHER ROUNDUP
NATIONAL WEATHER SERVICE BOISE ID
1100 AM MDT FRI APR 28 2017

NOTE: "FAIR" INDICATES FEW OR NO CLOUDS BELOW 12000 FEET
WITH NO SIGNIFICANT WEATHER AND/OR OBSTRUCTIONS TO VISIBILITY

IDZ012-014-281800-
SOUTHWEST IDAHO


CITY           SKY/WX    TMP DP  RH WIND       PRES   REMARKS
BOISE          SUNNY     47  32  56 NW20      30.08R
CALDWELL       SUNNY     49  32  52 W14       30.12S
MOUNTAIN HOME  SUNNY     48  31  52 NW32      30.03S
$$

IDZ016-017-281800-
SOUTHCENTRAL IDAHO


CITY           SKY/WX    TMP DP  RH WIND       PRES   REMARKS
BURLEY         MOSUNNY   40  30  67 W16       29.98R WCI  31
JEROME         SUNNY     42  30  62 SW12      30.00R
TWIN FALLS     MOSUNNY   42  30  62 W17G24    30.00S
$$

IDZ019>023-281800-
SOUTHEAST IDAHO


CITY           SKY/WX    TMP DP  RH WIND       PRES   REMARKS
IDAHO FALLS    CLOUDY    41  28  60 N14       29.93R
POCATELLO      CLOUDY    37  32  82 SW16      29.96S WCI  28
REXBURG        CLOUDY    42  26  53 N9        29.90R
$$

IDZ006-010-011-018-031-032-281800-
CENTRAL IDAHO MOUNTAINS


CITY           SKY/WX    TMP DP  RH WIND       PRES   REMARKS
MCCALL         PTSUNNY   38  27  64 W13       30.05S WCI  30
HAILEY         MOSUNNY   43  14  31 NW12G18   29.95S
STANLEY          N/A     33  18  53 N8        30.02R WCI  26
SALMON         CLOUDY    43  21  42 CALM      30.03F
CHALLIS        CLOUDY    40  18  41 N16       30.01S WCI  31
$$

IDZ002-004-006-007-026-281800-
NORTHERN IDAHO


CITY           SKY/WX    TMP DP  RH WIND       PRES   REMARKS
LEWISTON       CLOUDY    49  34  56 S3        30.19R
LOWELL           N/A     42  37  82 CALM      30.22R
COEUR D`ALENE  CLOUDY    43  34  70 SE12      30.15R
MULLAN PASS    FOG       31  30  96 CALM      30.05R VSB<1/4
$$




USA.gov is the U.S. government's official web portal to all federal, state and local government web resources and services.